User: anonymous   Login
Location: Fort Wayne
(41.1310°N, 85.1290°W)
Time: 02:55:42
(UTC-04:00)
Language:

Oscar 19 - Orbit

View from above orbital plane
View from above orbital plane
View from above satellite
View from above satellite

Ground track
Ground track

The orbit data is extracted from the following two-line orbital elements,

1 20442U 90005G   14304.06179845  .00000211  00000-0  93266-4 0   960
2 20442 098.4895 239.1478 0013038 106.1962 254.0658 14.32614624294133
Epoch (UTC): 31 October 2014 01:28:59
Eccentricity: 0.0013038
inclination: 98.4895°
perigee height: 773 km
apogee height: 792 km
right ascension of ascending node: 239.1478°
argument of perigee: 106.1962°
revolutions per day: 14.32614624
mean anomaly at epoch: 254.0658°
orbit number at epoch: 29413

The dashed part of the orbit path shows where the satellite is in the earth's shadow,  

DLR